User: anonymous
Location: Oshawa
(43.9000°N, 78.8670°W)
Time: 12:40:20
(UTC-04:00)
Language:

CZ-4C R/B - Orbit

View from above orbital plane
View from above orbital plane
View from above satellite
View from above satellite

Ground track
Ground track

The orbit data is extracted from the following two-line orbital elements,

1 32290U 07055B   14244.74743007  .00006629  00000-0  25685-3 0  9396
2 32290 097.5705 319.9958 0088695 141.4676 333.6221 15.22842781375926
Epoch (UTC): 01 September 2014 17:56:17
Eccentricity: 0.0088695
inclination: 97.5705°
perigee height: 436 km
apogee height: 558 km
right ascension of ascending node: 319.9958°
argument of perigee: 141.4676°
revolutions per day: 15.22842781
mean anomaly at epoch: 333.6221°
orbit number at epoch: 37592

The dashed part of the orbit path shows where the satellite is in the earth's shadow,  

DLR